Barkley Observed Data For Previous 48 Hours

Caption
Day and Hour Reservoir Elevation (behind dam)* Tailwater Elevation (below dam)* Average Hourly Discharge*
7/14/2018 1 AM CDT 358.55 304.85 17,400
7/14/2018 2 AM CDT 358.55 304.35 17,200
7/14/2018 3 AM CDT 358.55 304.15 17,200
7/14/2018 4 AM CDT 358.55 304.05 17,200
7/14/2018 5 AM CDT 358.55 303.95 17,200
7/14/2018 6 AM CDT 358.55 303.85 17,200
7/14/2018 7 AM CDT 358.55 303.75 17,000
7/14/2018 8 AM CDT 358.55 303.75 17,000
7/14/2018 9 AM CDT 358.55 303.85 17,200
7/14/2018 10 AM CDT 358.55 303.85 17,200
7/14/2018 11 AM CDT 358.55 303.95 17,200
7/14/2018 12 PM CDT 358.50 303.90 17,200
7/14/2018 1 PM CDT 358.50 303.90 17,200
7/14/2018 2 PM CDT 358.50 303.80 17,200
7/14/2018 3 PM CDT 358.50 303.70 17,000
7/14/2018 4 PM CDT 358.50 303.70 17,000
7/14/2018 5 PM CDT 358.50 303.60 17,000
7/14/2018 6 PM CDT 358.45 303.75 17,200
7/14/2018 7 PM CDT 358.35 303.95 16,800
7/14/2018 8 PM CDT 358.35 303.85 16,800
7/14/2018 9 PM CDT 358.35 303.85 16,800
7/14/2018 10 PM CDT 358.45 303.75 16,600
7/14/2018 11 PM CDT 358.65 303.75 16,600
7/15/2018 12 AM CDT 358.55 303.65 16,600
7/15/2018 1 AM CDT 358.50 303.70 16,600
7/15/2018 2 AM CDT 358.40 303.70 16,600
7/15/2018 3 AM CDT 358.45 303.75 16,600
7/15/2018 4 AM CDT 358.50 303.60 17,000
7/15/2018 5 AM CDT 358.50 303.60 17,000
7/15/2018 6 AM CDT 358.50 303.60 17,000
7/15/2018 7 AM CDT 358.45 303.55 17,000
7/15/2018 8 AM CDT 358.45 303.55 17,000
7/15/2018 9 AM CDT 358.40 303.50 17,000
7/15/2018 10 AM CDT 358.40 303.50 17,000
7/15/2018 11 AM CDT 358.40 303.40 17,000
7/15/2018 12 PM CDT 358.40 303.40 17,000
7/15/2018 1 PM CDT 358.45 303.35 17,000
7/15/2018 2 PM CDT 358.45 303.35 17,000
7/15/2018 3 PM CDT 358.45 303.25 17,000
7/15/2018 4 PM CDT 358.45 303.25 17,000
7/15/2018 5 PM CDT 358.50 303.20 17,000
7/15/2018 6 PM CDT 358.50 303.20 17,000
7/15/2018 7 PM CDT 358.55 303.05 16,800
7/15/2018 8 PM CDT 358.55 303.05 16,800
7/15/2018 9 PM CDT 358.55 303.05 16,800
7/15/2018 10 PM CDT 358.60 303.00 16,800
7/15/2018 11 PM CDT 358.60 303.00 16,800
7/16/2018 12 AM CDT 358.65 303.05 16,800

Elevations are in feet above sea level. Discharges are in cubic feet per second and are reported at the end of the hour.